Time,TemperatureF,DewpointF,PressureIn,WindDirection,WindDirectionDegrees,WindSpeedMPH,WindSpeedGustMPH,Humidity,HourlyPrecipIn,Conditions,Clouds,dailyrainin,SoftwareType,DateUTC
2013-04-11 00:01:00,41.2,4.2,30.27,WSW,240,19.2,19.2,21,-99.99,,---,-99.99,VWS V14.01,2013-04-11 07:01:00,
2013-04-11 00:06:00,41.2,4.2,30.27,SW,233,15.4,15.4,21,-99.99,,---,-99.99,VWS V14.01,2013-04-11 07:06:00,
2013-04-11 00:11:00,41.2,4.2,30.27,SW,231,15.4,15.4,21,-99.99,,---,-99.99,VWS V14.01,2013-04-11 07:11:00,
2013-04-11 00:16:00,41.2,4.2,30.27,WSW,242,20.6,20.6,21,-99.99,,---,-99.99,VWS V14.01,2013-04-11 07:16:00,
2013-04-11 00:21:00,41.2,4.2,30.27,WSW,242,20.6,20.6,21,-99.99,,---,-99.99,VWS V14.01,2013-04-11 07:21:00,
2013-04-11 00:26:00,43.7,5.3,30.27,SW,232,13.6,13.6,20,-99.99,,---,-99.99,VWS V14.01,2013-04-11 07:26:00,
2013-04-11 00:31:00,43.7,5.3,30.27,WSW,242,15.4,15.4,20,-99.99,,---,-99.99,VWS V14.01,2013-04-11 07:31:00,
2013-04-11 00:37:00,44.2,5.7,30.24,SW,232,15.0,15.0,20,-99.99,,---,-99.99,VWS V14.01,2013-04-11 07:37:00,
2013-04-11 00:42:00,44.2,5.7,30.24,SW,227,18.3,23.3,20,-99.99,,---,-99.99,VWS V14.01,2013-04-11 07:42:00,
2013-04-11 00:47:00,44.2,5.7,30.24,SW,227,18.3,18.3,20,-99.99,,---,-99.99,VWS V14.01,2013-04-11 07:47:00,
2013-04-11 00:52:00,44.2,5.7,30.24,WSW,242,13.2,13.2,20,-99.99,,---,-99.99,VWS V14.01,2013-04-11 07:52:00,
2013-04-11 00:57:00,44.1,5.6,30.24,WSW,242,13.2,13.2,20,-99.99,,---,-99.99,VWS V14.01,2013-04-11 07:57:00,
2013-04-11 01:02:00,43.5,5.1,30.24,WSW,237,11.9,11.9,20,-99.99,,---,-99.99,VWS V14.01,2013-04-11 08:02:00,
2013-04-11 01:07:00,43.5,5.1,30.24,WSW,237,11.9,11.9,20,-99.99,,---,-99.99,VWS V14.01,2013-04-11 08:07:00,
2013-04-11 01:12:00,42.1,5.0,30.24,SW,230,17.0,17.0,21,-99.99,,---,-99.99,VWS V14.01,2013-04-11 08:12:00,
2013-04-11 01:17:00,42.1,5.0,30.24,SW,230,17.0,17.0,21,-99.99,,---,-99.99,VWS V14.01,2013-04-11 08:17:00,
2013-04-11 01:22:00,42.3,5.1,30.24,SW,230,17.0,17.0,21,-99.99,,---,-99.99,VWS V14.01,2013-04-11 08:22:00,
2013-04-11 01:27:00,42.1,5.0,30.24,SW,220,14.5,14.5,21,-99.99,,---,-99.99,VWS V14.01,2013-04-11 08:27:00,
2013-04-11 01:32:00,42.1,5.0,30.24,SW,220,14.5,14.5,21,-99.99,,---,-99.99,VWS V14.01,2013-04-11 08:32:00,
2013-04-11 01:37:00,43.2,4.8,30.24,SW,220,14.5,14.5,20,-99.99,,---,-99.99,VWS V14.01,2013-04-11 08:37:00,
2013-04-11 01:42:00,43.2,4.8,30.24,SW,220,14.5,14.5,20,-99.99,,---,-99.99,VWS V14.01,2013-04-11 08:42:00,
2013-04-11 01:47:00,43.5,5.1,30.24,SW,220,14.5,14.5,20,-99.99,,---,-99.99,VWS V14.01,2013-04-11 08:47:00,
2013-04-11 01:52:00,43.5,5.1,30.24,SW,220,14.5,14.5,20,-99.99,,---,-99.99,VWS V14.01,2013-04-11 08:52:00,
2013-04-11 01:57:00,44.2,5.7,30.24,SW,220,14.5,14.5,20,-99.99,,---,-99.99,VWS V14.01,2013-04-11 08:57:00,
2013-04-11 02:02:00,44.2,5.7,30.24,SW,220,14.5,14.5,20,-99.99,,---,-99.99,VWS V14.01,2013-04-11 09:02:00,
2013-04-11 02:07:00,44.2,5.7,30.24,SW,220,14.5,14.5,20,-99.99,,---,-99.99,VWS V14.01,2013-04-11 09:07:00,
2013-04-11 02:12:00,44.2,5.7,30.21,SW,220,14.5,14.5,20,-99.99,,---,-99.99,VWS V14.01,2013-04-11 09:12:00,
2013-04-11 02:17:00,44.2,5.7,30.21,SW,220,14.5,14.5,20,-99.99,,---,-99.99,VWS V14.01,2013-04-11 09:17:00,
2013-04-11 02:22:00,44.6,6.0,30.21,SW,220,14.5,14.5,20,-99.99,,---,-99.99,VWS V14.01,2013-04-11 09:22:00,
2013-04-11 02:27:00,44.4,5.9,30.21,SW,220,14.5,14.5,20,-99.99,,---,-99.99,VWS V14.01,2013-04-11 09:27:00,
2013-04-11 02:32:00,44.4,5.9,30.21,SW,220,14.5,14.5,20,-99.99,,---,-99.99,VWS V14.01,2013-04-11 09:32:00,
2013-04-11 02:37:00,44.4,5.9,30.21,SW,220,14.5,14.5,20,-99.99,,---,-99.99,VWS V14.01,2013-04-11 09:37:00,
2013-04-11 02:42:00,44.4,5.9,30.21,SW,220,14.5,14.5,20,-99.99,,---,-99.99,VWS V14.01,2013-04-11 09:42:00,
2013-04-11 02:47:00,44.2,5.7,30.21,SW,220,14.5,14.5,20,-99.99,,---,-99.99,VWS V14.01,2013-04-11 09:47:00,
2013-04-11 02:52:00,44.2,5.7,30.21,SW,220,14.5,14.5,20,-99.99,,---,-99.99,VWS V14.01,2013-04-11 09:52:00,
2013-04-11 02:57:00,43.0,4.7,30.21,SW,220,14.5,14.5,20,-99.99,,---,-99.99,VWS V14.01,2013-04-11 09:57:00,
2013-04-11 03:02:00,43.2,4.8,30.21,SW,220,14.5,14.5,20,-99.99,,---,-99.99,VWS V14.01,2013-04-11 10:02:00,
2013-04-11 03:07:00,43.2,4.8,30.21,SW,220,14.5,14.5,20,-99.99,,---,-99.99,VWS V14.01,2013-04-11 10:07:00,
2013-04-11 03:12:00,43.0,4.7,30.21,SW,220,14.5,14.5,20,-99.99,,---,-99.99,VWS V14.01,2013-04-11 10:12:00,
2013-04-11 03:17:00,43.0,4.7,30.21,SW,220,14.5,14.5,20,-99.99,,---,-99.99,VWS V14.01,2013-04-11 10:17:00,
2013-04-11 03:22:00,43.9,5.4,30.21,SW,220,14.5,14.5,20,-99.99,,---,-99.99,VWS V14.01,2013-04-11 10:22:00,
2013-04-11 03:28:00,44.1,5.6,30.21,SW,220,14.5,14.5,20,-99.99,,---,-99.99,VWS V14.01,2013-04-11 10:28:00,
2013-04-11 03:33:00,44.1,5.6,30.21,SW,220,14.5,14.5,20,-99.99,,---,-99.99,VWS V14.01,2013-04-11 10:33:00,
2013-04-11 03:38:00,44.4,5.9,30.21,SW,220,14.5,14.5,20,-99.99,,---,-99.99,VWS V14.01,2013-04-11 10:38:00,
2013-04-11 03:43:00,44.4,5.9,30.21,SW,220,14.5,14.5,20,-99.99,,---,-99.99,VWS V14.01,2013-04-11 10:43:00,
2013-04-11 03:48:00,44.4,5.9,30.21,SW,220,14.5,14.5,20,-99.99,,---,-99.99,VWS V14.01,2013-04-11 10:48:00,
2013-04-11 03:53:00,44.4,5.9,30.21,SW,220,14.5,14.5,20,-99.99,,---,-99.99,VWS V14.01,2013-04-11 10:53:00,
2013-04-11 03:58:00,44.1,5.6,30.21,SW,220,14.5,14.5,20,-99.99,,---,-99.99,VWS V14.01,2013-04-11 10:58:00,
2013-04-11 04:03:00,43.5,5.1,30.21,SW,220,14.5,14.5,20,-99.99,,---,-99.99,VWS V14.01,2013-04-11 11:03:00,
2013-04-11 04:08:00,43.2,4.8,30.21,SW,220,14.5,14.5,20,-99.99,,---,-99.99,VWS V14.01,2013-04-11 11:08:00,
2013-04-11 04:13:00,42.8,4.5,30.21,SW,220,14.5,14.5,20,-99.99,,---,-99.99,VWS V14.01,2013-04-11 11:13:00,
2013-04-11 04:18:00,42.8,4.5,30.21,SW,220,14.5,14.5,20,-99.99,,---,-99.99,VWS V14.01,2013-04-11 11:18:00,
2013-04-11 04:23:00,42.8,4.5,30.21,SW,220,14.5,14.5,20,-99.99,,---,-99.99,VWS V14.01,2013-04-11 11:23:00,
2013-04-11 04:28:00,42.8,4.5,30.21,SW,220,14.5,14.5,20,-99.99,,---,-99.99,VWS V14.01,2013-04-11 11:28:00,
2013-04-11 04:33:00,42.1,5.0,30.21,SW,220,14.5,14.5,21,-99.99,,---,-99.99,VWS V14.01,2013-04-11 11:33:00,
2013-04-11 04:38:00,42.3,5.1,30.21,SW,220,14.5,14.5,21,-99.99,,---,-99.99,VWS V14.01,2013-04-11 11:38:00,
2013-04-11 04:43:00,42.3,5.1,30.21,SW,220,14.5,14.5,21,-99.99,,---,-99.99,VWS V14.01,2013-04-11 11:43:00,
2013-04-11 04:48:00,42.3,5.1,30.21,SW,220,14.5,14.5,21,-99.99,,---,-99.99,VWS V14.01,2013-04-11 11:48:00,
2013-04-11 04:53:00,42.3,5.1,30.21,SW,220,14.5,14.5,21,-99.99,,---,-99.99,VWS V14.01,2013-04-11 11:53:00,
2013-04-11 04:58:00,41.9,4.8,30.21,SW,220,14.5,14.5,21,-99.99,,---,-99.99,VWS V14.01,2013-04-11 11:58:00,
2013-04-11 05:03:00,41.5,4.5,30.21,SW,220,14.5,14.5,21,-99.99,,---,-99.99,VWS V14.01,2013-04-11 12:03:00,
2013-04-11 05:08:00,41.5,4.5,30.21,SW,220,14.5,14.5,21,-99.99,,---,-99.99,VWS V14.01,2013-04-11 12:08:00,
2013-04-11 05:13:00,40.6,3.8,30.21,SW,220,14.5,14.5,21,-99.99,,---,-99.99,VWS V14.01,2013-04-11 12:13:00,
2013-04-11 05:18:00,40.3,3.5,30.21,SW,220,14.5,14.5,21,-99.99,,---,-99.99,VWS V14.01,2013-04-11 12:18:00,
2013-04-11 05:23:00,40.3,3.5,30.21,SW,220,14.5,14.5,21,-99.99,,---,-99.99,VWS V14.01,2013-04-11 12:23:00,
2013-04-11 05:28:00,40.3,3.5,30.21,SW,220,14.5,14.5,21,-99.99,,---,-99.99,VWS V14.01,2013-04-11 12:28:00,
2013-04-11 05:33:00,40.6,3.8,30.21,SW,220,14.5,14.5,21,-99.99,,---,-99.99,VWS V14.01,2013-04-11 12:33:00,
2013-04-11 05:38:00,39.4,2.7,30.21,SW,220,14.5,14.5,21,-99.99,,---,-99.99,VWS V14.01,2013-04-11 12:38:00,
2013-04-11 05:43:00,39.6,4.8,30.21,SW,220,14.5,14.5,23,-99.99,,---,-99.99,VWS V14.01,2013-04-11 12:43:00,
2013-04-11 05:48:00,39.2,4.5,30.21,SW,220,14.5,14.5,23,-99.99,,---,-99.99,VWS V14.01,2013-04-11 12:48:00,
2013-04-11 05:53:00,39.2,4.5,30.21,SW,220,14.5,14.5,23,-99.99,,---,-99.99,VWS V14.01,2013-04-11 12:53:00,
2013-04-11 05:58:00,38.7,5.0,30.21,SW,220,14.5,14.5,24,-99.99,,---,-99.99,VWS V14.01,2013-04-11 12:58:00,
2013-04-11 06:03:00,38.1,1.6,30.21,SW,220,14.5,14.5,21,-99.99,,---,-99.99,VWS V14.01,2013-04-11 13:03:00,
2013-04-11 06:08:00,38.1,4.5,30.21,SW,220,14.5,14.5,24,-99.99,,---,-99.99,VWS V14.01,2013-04-11 13:08:00,
2013-04-11 06:13:00,38.1,6.3,30.21,SW,220,14.5,14.5,26,-99.99,,---,-99.99,VWS V14.01,2013-04-11 13:13:00,
2013-04-11 06:18:00,38.1,6.3,30.21,SW,220,14.5,14.5,26,-99.99,,---,-99.99,VWS V14.01,2013-04-11 13:18:00,
2013-04-11 06:23:00,38.1,8.7,30.21,SW,220,14.5,14.5,29,-99.99,,---,-99.99,VWS V14.01,2013-04-11 13:23:00,
2013-04-11 06:28:00,38.1,8.7,30.15,SW,220,14.5,14.5,29,-99.99,,---,-99.99,VWS V14.01,2013-04-11 13:28:00,
2013-04-11 06:33:00,38.3,9.6,30.15,SW,220,14.5,14.5,30,-99.99,,---,-99.99,VWS V14.01,2013-04-11 13:33:00,
2013-04-11 06:38:00,38.1,9.4,30.15,SW,220,14.5,14.5,30,-99.99,,---,-99.99,VWS V14.01,2013-04-11 13:38:00,
2013-04-11 06:43:00,38.1,9.4,30.15,SW,220,14.5,14.5,30,-99.99,,---,-99.99,VWS V14.01,2013-04-11 13:43:00,
2013-04-11 06:48:00,38.3,9.6,30.15,SW,220,14.5,14.5,30,-99.99,,---,-99.99,VWS V14.01,2013-04-11 13:48:00,
2013-04-11 06:53:00,37.9,8.5,30.15,SW,220,14.5,14.5,29,-99.99,,---,-99.99,VWS V14.01,2013-04-11 13:53:00,
2013-04-11 06:58:00,37.9,8.5,30.15,SW,220,14.5,14.5,29,-99.99,,---,-99.99,VWS V14.01,2013-04-11 13:58:00,
2013-04-11 07:03:00,38.1,8.7,30.15,SW,220,14.5,14.5,29,-99.99,,---,-99.99,VWS V14.01,2013-04-11 14:03:00,
2013-04-11 07:08:00,38.1,8.7,30.15,SW,220,14.5,14.5,29,-99.99,,---,-99.99,VWS V14.01,2013-04-11 14:08:00,
2013-04-11 07:13:00,37.9,8.5,30.15,SW,220,14.5,14.5,29,-99.99,,---,-99.99,VWS V14.01,2013-04-11 14:13:00,
2013-04-11 07:18:00,38.1,8.7,30.15,SW,220,14.5,14.5,29,-99.99,,---,-99.99,VWS V14.01,2013-04-11 14:18:00,
2013-04-11 07:23:00,38.1,8.7,30.15,SW,220,14.5,14.5,29,-99.99,,---,-99.99,VWS V14.01,2013-04-11 14:23:00,
2013-04-11 07:28:00,38.1,8.7,30.15,SW,220,14.5,14.5,29,-99.99,,---,-99.99,VWS V14.01,2013-04-11 14:28:00,
2013-04-11 07:33:00,38.1,8.7,30.15,SW,220,14.5,14.5,29,-99.99,,---,-99.99,VWS V14.01,2013-04-11 14:33:00,
2013-04-11 07:38:00,38.1,8.7,30.15,SW,220,14.5,14.5,29,-99.99,,---,-99.99,VWS V14.01,2013-04-11 14:38:00,
2013-04-11 07:43:00,38.1,8.7,30.15,SW,220,14.5,14.5,29,-99.99,,---,-99.99,VWS V14.01,2013-04-11 14:43:00,
2013-04-11 07:48:00,38.1,8.7,30.15,SW,220,14.5,14.5,29,-99.99,,---,-99.99,VWS V14.01,2013-04-11 14:48:00,
2013-04-11 07:53:00,38.5,9.0,30.15,SW,220,14.5,14.5,29,-99.99,,---,-99.99,VWS V14.01,2013-04-11 14:53:00,
2013-04-11 07:58:00,38.5,9.0,30.15,SW,220,14.5,14.5,29,-99.99,,---,-99.99,VWS V14.01,2013-04-11 14:58:00,
2013-04-11 08:03:00,37.9,6.1,30.15,SW,220,14.5,14.5,26,-99.99,,---,-99.99,VWS V14.01,2013-04-11 15:03:00,
2013-04-11 08:09:00,38.1,6.3,30.15,SW,220,14.5,14.5,26,-99.99,,---,-99.99,VWS V14.01,2013-04-11 15:09:00,
2013-04-11 08:14:00,37.9,6.1,30.15,SW,220,14.5,14.5,26,-99.99,,---,-99.99,VWS V14.01,2013-04-11 15:14:00,
2013-04-11 08:19:00,37.9,6.1,30.15,SW,220,14.5,14.5,26,-99.99,,---,-99.99,VWS V14.01,2013-04-11 15:19:00,
2013-04-11 08:24:00,37.6,1.2,30.15,SW,220,14.5,14.5,21,-99.99,,---,-99.99,VWS V14.01,2013-04-11 15:24:00,
2013-04-11 08:29:00,37.8,1.4,30.15,SW,220,14.5,14.5,21,-99.99,,---,-99.99,VWS V14.01,2013-04-11 15:29:00,
2013-04-11 08:34:00,37.4,1.0,30.15,SW,220,14.5,14.5,21,-99.99,,---,-99.99,VWS V14.01,2013-04-11 15:34:00,
2013-04-11 08:39:00,37.9,1.5,30.15,SW,220,14.5,14.5,21,-99.99,,---,-99.99,VWS V14.01,2013-04-11 15:39:00,
2013-04-11 08:44:00,37.9,1.5,30.15,SW,220,14.5,14.5,21,-99.99,,---,-99.99,VWS V14.01,2013-04-11 15:44:00,
2013-04-11 08:49:00,39.2,4.5,30.15,SW,220,14.5,14.5,23,-99.99,,---,-99.99,VWS V14.01,2013-04-11 15:49:00,
2013-04-11 08:54:00,39.4,4.7,30.15,SW,220,14.5,14.5,23,-99.99,,---,-99.99,VWS V14.01,2013-04-11 15:54:00,
2013-04-11 08:59:00,39.4,4.7,30.15,SW,220,14.5,14.5,23,-99.99,,---,-99.99,VWS V14.01,2013-04-11 15:59:00,
2013-04-11 09:04:00,39.6,4.8,30.15,SW,220,14.5,14.5,23,-99.99,,---,-99.99,VWS V14.01,2013-04-11 16:04:00,
2013-04-11 09:09:00,39.9,5.1,30.15,SW,224,13.2,13.2,23,-99.99,,---,-99.99,VWS V14.01,2013-04-11 16:09:00,
2013-04-11 09:14:00,39.9,3.2,30.15,SW,216,12.8,12.8,21,-99.99,,---,-99.99,VWS V14.01,2013-04-11 16:14:00,
2013-04-11 09:19:00,39.9,3.2,30.15,SW,221,8.1,8.1,21,-99.99,,---,-99.99,VWS V14.01,2013-04-11 16:19:00,
2013-04-11 09:24:00,39.9,3.2,30.15,SW,226,10.5,10.5,21,-99.99,,---,-99.99,VWS V14.01,2013-04-11 16:24:00,
2013-04-11 09:29:00,39.9,3.2,30.15,SW,218,8.3,8.3,21,-99.99,,---,-99.99,VWS V14.01,2013-04-11 16:29:00,
2013-04-11 09:34:00,39.9,3.2,30.15,SW,227,12.3,12.3,21,-99.99,,---,-99.99,VWS V14.01,2013-04-11 16:34:00,
2013-04-11 09:39:00,40.6,3.8,30.15,WSW,238,11.0,11.0,21,-99.99,,---,-99.99,VWS V14.01,2013-04-11 16:39:00,
2013-04-11 09:44:00,40.6,3.8,30.15,SW,224,8.1,10.1,21,-99.99,,---,-99.99,VWS V14.01,2013-04-11 16:44:00,
2013-04-11 09:49:00,40.6,3.8,30.15,SW,227,10.1,10.1,21,-99.99,,---,-99.99,VWS V14.01,2013-04-11 16:49:00,
2013-04-11 09:54:00,40.6,3.8,30.15,SW,233,12.8,12.8,21,-99.99,,---,-99.99,VWS V14.01,2013-04-11 16:54:00,
2013-04-11 09:59:00,41.2,4.2,30.15,SW,234,5.4,10.5,21,-99.99,,---,-99.99,VWS V14.01,2013-04-11 16:59:00,
2013-04-11 10:04:00,41.2,4.2,30.15,WSW,246,12.3,12.3,21,-99.99,,---,-99.99,VWS V14.01,2013-04-11 17:04:00,
2013-04-11 10:09:00,41.2,4.2,30.15,WSW,243,8.1,8.1,21,-99.99,,---,-99.99,VWS V14.01,2013-04-11 17:09:00,
2013-04-11 10:14:00,41.2,4.2,30.15,SW,229,8.3,8.3,21,-99.99,,---,-99.99,VWS V14.01,2013-04-11 17:14:00,
2013-04-11 10:19:00,41.2,4.2,30.15,SW,221,7.6,11.0,21,-99.99,,---,-99.99,VWS V14.01,2013-04-11 17:19:00,
2013-04-11 10:24:00,44.2,5.7,30.15,SW,229,8.3,8.3,20,-99.99,,---,-99.99,VWS V14.01,2013-04-11 17:24:00,
2013-04-11 10:29:00,44.2,5.7,30.15,SSW,209,10.1,10.1,20,-99.99,,---,-99.99,VWS V14.01,2013-04-11 17:29:00,
2013-04-11 10:34:00,44.2,5.7,30.15,SSW,206,8.3,8.3,20,-99.99,,---,-99.99,VWS V14.01,2013-04-11 17:34:00,
2013-04-11 10:39:00,44.2,5.7,30.15,SSW,210,8.1,8.1,20,-99.99,,---,-99.99,VWS V14.01,2013-04-11 17:39:00,
2013-04-11 10:44:00,44.2,5.7,30.15,SW,232,10.1,10.1,20,-99.99,,---,-99.99,VWS V14.01,2013-04-11 17:44:00,
2013-04-11 10:49:00,45.5,6.8,30.15,SW,214,6.3,6.3,20,-99.99,,---,-99.99,VWS V14.01,2013-04-11 17:49:00,
2013-04-11 10:54:00,45.5,6.8,30.15,West,276,2.2,2.2,20,-99.99,,---,-99.99,VWS V14.01,2013-04-11 17:54:00,
2013-04-11 10:59:00,45.5,6.8,30.15,WSW,258,0.0,0.0,20,-99.99,,---,-99.99,VWS V14.01,2013-04-11 17:59:00,
2013-04-11 11:04:00,45.5,6.8,30.15,SW,222,0.0,0.0,20,-99.99,,---,-99.99,VWS V14.01,2013-04-11 18:04:00,
2013-04-11 11:09:00,47.3,7.1,30.15,SW,222,0.0,0.0,19,-99.99,,---,-99.99,VWS V14.01,2013-04-11 18:09:00,
2013-04-11 11:14:00,47.3,7.1,30.15,West,261,0.0,0.0,19,-99.99,,---,-99.99,VWS V14.01,2013-04-11 18:14:00,
2013-04-11 11:19:00,47.3,7.1,30.15,West,270,0.0,0.0,19,-99.99,,---,-99.99,VWS V14.01,2013-04-11 18:19:00,
2013-04-11 11:24:00,47.3,7.1,30.15,West,270,0.0,0.0,19,-99.99,,---,-99.99,VWS V14.01,2013-04-11 18:24:00,
2013-04-11 11:29:00,47.3,7.1,30.15,West,266,8.3,8.3,19,-99.99,,---,-99.99,VWS V14.01,2013-04-11 18:29:00,
2013-04-11 11:34:00,47.5,7.3,30.15,WSW,237,8.1,8.1,19,-99.99,,---,-99.99,VWS V14.01,2013-04-11 18:34:00,
2013-04-11 11:39:00,47.5,7.3,30.15,West,266,10.1,10.1,19,-99.99,,---,-99.99,VWS V14.01,2013-04-11 18:39:00,
2013-04-11 11:44:00,47.5,7.3,30.15,SW,225,0.0,10.5,19,-99.99,,---,-99.99,VWS V14.01,2013-04-11 18:44:00,
2013-04-11 11:49:00,47.5,7.3,30.15,WSW,245,0.0,0.0,19,-99.99,,---,-99.99,VWS V14.01,2013-04-11 18:49:00,
2013-04-11 11:54:00,47.5,7.3,30.15,WSW,252,11.0,11.0,19,-99.99,,---,-99.99,VWS V14.01,2013-04-11 18:54:00,
2013-04-11 12:00:00,49.1,8.6,30.15,West,265,5.4,5.4,19,-99.99,,---,-99.99,VWS V14.01,2013-04-11 19:00:00,
2013-04-11 12:05:00,49.1,8.6,30.15,WSW,245,4.0,4.0,19,-99.99,,---,-99.99,VWS V14.01,2013-04-11 19:05:00,
2013-04-11 12:10:00,49.1,8.6,30.15,WSW,254,0.0,0.0,19,-99.99,,---,-99.99,VWS V14.01,2013-04-11 19:10:00,
2013-04-11 12:15:00,49.1,8.6,30.12,SW,223,10.5,10.5,19,-99.99,,---,-99.99,VWS V14.01,2013-04-11 19:15:00,
2013-04-11 12:20:00,50.2,9.5,30.12,WSW,238,8.1,8.1,19,-99.99,,---,-99.99,VWS V14.01,2013-04-11 19:20:00,
2013-04-11 12:25:00,50.2,9.5,30.12,WSW,249,0.0,0.0,19,-99.99,,---,-99.99,VWS V14.01,2013-04-11 19:25:00,
2013-04-11 12:30:00,50.2,9.5,30.12,West,276,2.7,2.7,19,-99.99,,---,-99.99,VWS V14.01,2013-04-11 19:30:00,
2013-04-11 12:35:00,50.2,9.5,30.09,WSW,241,0.0,0.0,19,-99.99,,---,-99.99,VWS V14.01,2013-04-11 19:35:00,
2013-04-11 12:40:00,50.2,9.5,30.09,WSW,239,8.3,8.3,19,-99.99,,---,-99.99,VWS V14.01,2013-04-11 19:40:00,
2013-04-11 12:45:00,52.3,10.1,30.09,WSW,243,3.6,8.7,18,-99.99,,---,-99.99,VWS V14.01,2013-04-11 19:45:00,
2013-04-11 12:50:00,52.3,10.1,30.09,WSW,243,3.6,3.6,18,-99.99,,---,-99.99,VWS V14.01,2013-04-11 19:50:00,
2013-04-11 12:55:00,52.3,10.1,30.09,WSW,254,0.0,0.0,18,-99.99,,---,-99.99,VWS V14.01,2013-04-11 19:55:00,
2013-04-11 13:00:00,52.3,10.1,30.09,WSW,254,0.0,0.0,18,-99.99,,---,-99.99,VWS V14.01,2013-04-11 20:00:00,
2013-04-11 13:05:00,52.3,10.1,30.09,West,274,0.0,0.0,18,-99.99,,---,-99.99,VWS V14.01,2013-04-11 20:05:00,
2013-04-11 13:10:00,52.3,10.1,30.09,WNW,290,0.0,0.0,18,-99.99,,---,-99.99,VWS V14.01,2013-04-11 20:10:00,
2013-04-11 13:15:00,52.3,10.1,30.09,West,270,0.0,0.0,18,-99.99,,---,-99.99,VWS V14.01,2013-04-11 20:15:00,
2013-04-11 13:20:00,52.3,10.1,30.09,WSW,242,12.3,12.3,18,-99.99,,---,-99.99,VWS V14.01,2013-04-11 20:20:00,
2013-04-11 13:25:00,52.3,10.1,30.09,WSW,242,12.3,12.3,18,-99.99,,---,-99.99,VWS V14.01,2013-04-11 20:25:00,
2013-04-11 13:30:00,52.3,10.1,30.09,WNW,288,6.3,6.3,18,-99.99,,---,-99.99,VWS V14.01,2013-04-11 20:30:00,
2013-04-11 13:35:00,52.3,10.1,30.09,WSW,237,11.9,11.9,18,-99.99,,---,-99.99,VWS V14.01,2013-04-11 20:35:00,
2013-04-11 13:40:00,52.3,10.1,30.06,WSW,246,8.3,8.3,18,-99.99,,---,-99.99,VWS V14.01,2013-04-11 20:40:00,
2013-04-11 13:45:00,52.3,10.1,30.06,WSW,257,10.5,10.5,18,-99.99,,---,-99.99,VWS V14.01,2013-04-11 20:45:00,
2013-04-11 13:50:00,52.3,10.1,30.06,West,262,8.1,8.1,18,-99.99,,---,-99.99,VWS V14.01,2013-04-11 20:50:00,
2013-04-11 13:55:00,52.3,10.1,30.06,West,263,7.6,7.6,18,-99.99,,---,-99.99,VWS V14.01,2013-04-11 20:55:00,
2013-04-11 14:00:00,52.3,10.1,30.06,West,263,7.6,7.6,18,-99.99,,---,-99.99,VWS V14.01,2013-04-11 21:00:00,
2013-04-11 14:05:00,52.3,10.1,30.06,WSW,254,8.1,8.1,18,-99.99,,---,-99.99,VWS V14.01,2013-04-11 21:05:00,
2013-04-11 14:10:00,52.3,10.1,30.06,SW,220,0.0,0.0,18,-99.99,,---,-99.99,VWS V14.01,2013-04-11 21:10:00,
2013-04-11 14:15:00,52.3,10.1,30.06,WSW,237,0.0,0.0,18,-99.99,,---,-99.99,VWS V14.01,2013-04-11 21:15:00,
2013-04-11 14:20:00,52.3,10.1,30.06,WSW,254,3.1,8.3,18,-99.99,,---,-99.99,VWS V14.01,2013-04-11 21:20:00,
2013-04-11 14:26:00,52.3,10.1,30.06,WSW,254,3.1,3.1,18,-99.99,,---,-99.99,VWS V14.01,2013-04-11 21:26:00,
2013-04-11 14:31:00,52.3,10.1,30.06,West,264,8.3,8.3,18,-99.99,,---,-99.99,VWS V14.01,2013-04-11 21:31:00,
2013-04-11 14:36:00,52.3,10.1,30.06,West,264,8.3,8.3,18,-99.99,,---,-99.99,VWS V14.01,2013-04-11 21:36:00,
2013-04-11 14:41:00,52.3,10.1,30.06,SW,223,7.6,7.6,18,-99.99,,---,-99.99,VWS V14.01,2013-04-11 21:41:00,
2013-04-11 14:45:00,52.3,10.1,30.06,West,271,0.0,0.0,18,-99.99,,---,-99.99,VWS V14.01,2013-04-11 21:45:00,
2013-04-11 14:51:00,52.3,10.1,30.06,WSW,239,0.0,0.0,18,-99.99,,---,-99.99,VWS V14.01,2013-04-11 21:51:00,
2013-04-11 14:56:00,52.3,10.1,30.06,WSW,249,0.0,0.0,18,-99.99,,---,-99.99,VWS V14.01,2013-04-11 21:56:00,
2013-04-11 15:01:00,52.3,10.1,30.06,WSW,249,0.0,0.0,18,-99.99,,---,-99.99,VWS V14.01,2013-04-11 22:01:00,
2013-04-11 15:06:00,52.3,10.1,30.06,West,269,0.0,0.0,18,-99.99,,---,-99.99,VWS V14.01,2013-04-11 22:06:00,
2013-04-11 15:11:00,52.3,10.1,30.06,WSW,240,0.0,0.0,18,-99.99,,---,-99.99,VWS V14.01,2013-04-11 22:11:00,
2013-04-11 15:16:00,52.3,10.1,30.06,WSW,240,0.0,0.0,18,-99.99,,---,-99.99,VWS V14.01,2013-04-11 22:16:00,
2013-04-11 15:21:00,52.3,10.1,30.06,WNW,290,0.0,0.0,18,-99.99,,---,-99.99,VWS V14.01,2013-04-11 22:21:00,
2013-04-11 15:26:00,52.3,10.1,30.06,WNW,290,0.0,0.0,18,-99.99,,---,-99.99,VWS V14.01,2013-04-11 22:26:00,
2013-04-11 15:31:00,52.3,10.1,30.06,West,261,0.0,0.0,18,-99.99,,---,-99.99,VWS V14.01,2013-04-11 22:31:00,
2013-04-11 15:36:00,52.3,10.1,30.06,WSW,256,0.0,0.0,18,-99.99,,---,-99.99,VWS V14.01,2013-04-11 22:36:00,
2013-04-11 15:41:00,52.0,9.8,30.06,WSW,256,0.0,0.0,18,-99.99,,---,-99.99,VWS V14.01,2013-04-11 22:41:00,
2013-04-11 15:46:00,52.0,9.8,30.06,SW,218,0.0,0.0,18,-99.99,,---,-99.99,VWS V14.01,2013-04-11 22:46:00,
2013-04-11 15:51:00,52.0,9.8,30.06,SW,218,0.0,0.0,18,-99.99,,---,-99.99,VWS V14.01,2013-04-11 22:51:00,
2013-04-11 15:56:00,52.0,9.8,30.06,WSW,255,0.0,0.0,18,-99.99,,---,-99.99,VWS V14.01,2013-04-11 22:56:00,
2013-04-11 16:01:00,52.0,9.8,30.06,SSW,204,0.0,0.0,18,-99.99,,---,-99.99,VWS V14.01,2013-04-11 23:01:00,
2013-04-11 16:06:00,52.0,9.8,30.06,WSW,255,0.0,0.0,18,-99.99,,---,-99.99,VWS V14.01,2013-04-11 23:06:00,
2013-04-11 16:11:00,52.0,9.8,30.03,WSW,246,0.0,0.0,18,-99.99,,---,-99.99,VWS V14.01,2013-04-11 23:11:00,
2013-04-11 16:16:00,52.0,9.8,30.03,WSW,246,0.0,0.0,18,-99.99,,---,-99.99,VWS V14.01,2013-04-11 23:16:00,
2013-04-11 16:22:00,52.0,9.8,30.03,SW,221,0.0,0.0,18,-99.99,,---,-99.99,VWS V14.01,2013-04-11 23:22:00,
2013-04-11 16:27:00,52.0,9.8,30.03,SW,221,0.0,0.0,18,-99.99,,---,-99.99,VWS V14.01,2013-04-11 23:27:00,
2013-04-11 16:32:00,52.0,9.8,30.03,SW,216,0.0,0.0,18,-99.99,,---,-99.99,VWS V14.01,2013-04-11 23:32:00,
2013-04-11 16:37:00,52.0,9.8,30.03,SW,235,4.9,4.9,18,-99.99,,---,-99.99,VWS V14.01,2013-04-11 23:37:00,
2013-04-11 16:42:00,52.0,9.8,30.03,SW,235,4.9,4.9,18,-99.99,,---,-99.99,VWS V14.01,2013-04-11 23:42:00,
2013-04-11 16:47:00,52.0,9.8,30.03,WSW,247,7.6,7.6,18,-99.99,,---,-99.99,VWS V14.01,2013-04-11 23:47:00,
2013-04-11 16:52:00,52.0,9.8,30.03,WSW,247,7.6,7.6,18,-99.99,,---,-99.99,VWS V14.01,2013-04-11 23:52:00,
2013-04-11 16:57:00,52.0,9.8,30.03,SSW,210,13.2,13.2,18,-99.99,,---,-99.99,VWS V14.01,2013-04-11 23:57:00,
2013-04-11 17:02:00,52.0,9.8,30.03,SSW,210,13.2,13.2,18,-99.99,,---,-99.99,VWS V14.01,2013-04-12 00:02:00,
2013-04-11 17:07:00,52.0,9.8,30.03,SW,229,7.6,7.6,18,-99.99,,---,-99.99,VWS V14.01,2013-04-12 00:07:00,
2013-04-11 17:12:00,52.0,9.8,30.03,SW,224,8.7,8.7,18,-99.99,,---,-99.99,VWS V14.01,2013-04-12 00:12:00,
2013-04-11 17:17:00,52.0,9.8,30.03,SW,224,8.7,8.7,18,-99.99,,---,-99.99,VWS V14.01,2013-04-12 00:17:00,
2013-04-11 17:22:00,52.0,9.8,30.03,SW,226,8.1,8.1,18,-99.99,,---,-99.99,VWS V14.01,2013-04-12 00:22:00,
2013-04-11 17:27:00,52.0,9.8,30.03,SW,226,8.1,8.1,18,-99.99,,---,-99.99,VWS V14.01,2013-04-12 00:27:00,
2013-04-11 17:32:00,52.0,9.8,30.03,SSW,212,10.5,10.5,18,-99.99,,---,-99.99,VWS V14.01,2013-04-12 00:32:00,
2013-04-11 17:37:00,52.0,9.8,30.03,SW,229,12.8,12.8,18,-99.99,,---,-99.99,VWS V14.01,2013-04-12 00:37:00,
2013-04-11 17:42:00,52.0,9.8,30.03,SW,229,12.8,12.8,18,-99.99,,---,-99.99,VWS V14.01,2013-04-12 00:42:00,
2013-04-11 17:47:00,42.6,11.8,30.03,SW,216,12.8,12.8,28,-99.99,,---,-99.99,VWS V14.01,2013-04-12 00:47:00,
2013-04-11 17:52:00,42.6,11.8,30.03,SW,216,12.8,12.8,28,-99.99,,---,-99.99,VWS V14.01,2013-04-12 00:52:00,
2013-04-11 17:57:00,42.6,11.8,30.03,SSW,193,8.3,8.3,28,-99.99,,---,-99.99,VWS V14.01,2013-04-12 00:57:00,
2013-04-11 18:02:00,43.2,12.3,30.03,SW,221,12.3,12.3,28,-99.99,,---,-99.99,VWS V14.01,2013-04-12 01:02:00,
2013-04-11 18:07:00,42.3,11.5,30.03,SW,221,12.3,12.3,28,-99.99,,---,-99.99,VWS V14.01,2013-04-12 01:07:00,
2013-04-11 18:12:00,42.1,12.1,30.03,SW,214,11.0,12.3,29,-99.99,,---,-99.99,VWS V14.01,2013-04-12 01:12:00,
2013-04-11 18:17:00,42.3,13.1,30.03,SW,214,11.0,11.0,30,-99.99,,---,-99.99,VWS V14.01,2013-04-12 01:17:00,
2013-04-11 18:22:00,42.3,13.1,30.03,SW,214,11.0,11.0,30,-99.99,,---,-99.99,VWS V14.01,2013-04-12 01:22:00,
2013-04-11 18:27:00,41.9,13.5,30.03,SW,214,11.0,11.0,31,-99.99,,---,-99.99,VWS V14.01,2013-04-12 01:27:00,
2013-04-11 18:32:00,41.9,13.5,30.03,SW,214,11.0,11.0,31,-99.99,,---,-99.99,VWS V14.01,2013-04-12 01:32:00,
2013-04-11 18:37:00,41.7,14.1,30.03,SW,214,11.0,11.0,32,-99.99,,---,-99.99,VWS V14.01,2013-04-12 01:37:00,
2013-04-11 18:42:00,41.7,15.4,30.03,SW,214,11.0,11.0,34,-99.99,,---,-99.99,VWS V14.01,2013-04-12 01:42:00,
2013-04-11 18:47:00,41.7,15.4,30.03,SW,214,11.0,11.0,34,-99.99,,---,-99.99,VWS V14.01,2013-04-12 01:47:00,
2013-04-11 18:52:00,41.7,17.4,30.03,SW,214,11.0,11.0,37,-99.99,,---,-99.99,VWS V14.01,2013-04-12 01:52:00,
2013-04-11 18:58:00,41.7,18.0,30.03,SW,214,11.0,11.0,38,-99.99,,---,-99.99,VWS V14.01,2013-04-12 01:58:00,
2013-04-11 19:03:00,41.5,17.8,30.03,SW,214,11.0,11.0,38,-99.99,,---,-99.99,VWS V14.01,2013-04-12 02:03:00,
2013-04-11 19:08:00,41.7,18.6,30.03,SW,214,11.0,11.0,39,-99.99,,---,-99.99,VWS V14.01,2013-04-12 02:08:00,
2013-04-11 19:13:00,41.7,18.6,30.03,SW,214,11.0,11.0,39,-99.99,,---,-99.99,VWS V14.01,2013-04-12 02:13:00,
2013-04-11 19:18:00,41.9,19.9,30.03,SW,214,11.0,11.0,41,-99.99,,---,-99.99,VWS V14.01,2013-04-12 02:18:00,
2013-04-11 19:23:00,41.9,20.5,30.06,SW,214,11.0,11.0,42,-99.99,,---,-99.99,VWS V14.01,2013-04-12 02:23:00,
2013-04-11 19:28:00,41.9,21.0,30.06,SW,214,11.0,11.0,43,-99.99,,---,-99.99,VWS V14.01,2013-04-12 02:28:00,
2013-04-11 19:33:00,42.3,22.5,30.06,SW,214,11.0,11.0,45,-99.99,,---,-99.99,VWS V14.01,2013-04-12 02:33:00,
2013-04-11 19:38:00,42.3,22.5,30.06,WSW,239,6.3,6.3,45,-99.99,,---,-99.99,VWS V14.01,2013-04-12 02:38:00,
2013-04-11 19:43:00,42.3,22.5,30.06,WSW,239,6.3,6.3,45,-99.99,,---,-99.99,VWS V14.01,2013-04-12 02:43:00,
2013-04-11 19:48:00,42.4,22.6,30.06,WSW,239,6.3,6.3,45,-99.99,,---,-99.99,VWS V14.01,2013-04-12 02:48:00,
2013-04-11 19:53:00,42.4,23.1,30.06,WSW,239,6.3,6.3,46,-99.99,,---,-99.99,VWS V14.01,2013-04-12 02:53:00,
2013-04-11 19:58:00,42.4,23.1,30.06,WSW,239,6.3,6.3,46,-99.99,,---,-99.99,VWS V14.01,2013-04-12 02:58:00,
2013-04-11 20:03:00,42.3,21.4,30.06,WSW,239,6.3,6.3,43,-99.99,,---,-99.99,VWS V14.01,2013-04-12 03:03:00,
2013-04-11 20:08:00,40.8,14.0,30.06,SW,236,7.6,7.6,33,-99.99,,---,-99.99,VWS V14.01,2013-04-12 03:08:00,
2013-04-11 20:13:00,40.8,14.0,30.06,SW,236,7.6,7.6,33,-99.99,,---,-99.99,VWS V14.01,2013-04-12 03:13:00,
2013-04-11 20:18:00,40.3,16.7,30.06,SW,236,7.6,7.6,38,-99.99,,---,-99.99,VWS V14.01,2013-04-12 03:18:00,
2013-04-11 20:23:00,40.3,17.9,30.06,SW,236,7.6,7.6,40,-99.99,,---,-99.99,VWS V14.01,2013-04-12 03:23:00,
2013-04-11 20:28:00,40.3,18.5,30.06,WSW,237,6.3,6.3,41,-99.99,,---,-99.99,VWS V14.01,2013-04-12 03:28:00,
2013-04-11 20:33:00,41.0,20.2,30.06,WSW,237,6.3,6.3,43,-99.99,,---,-99.99,VWS V14.01,2013-04-12 03:33:00,
2013-04-11 20:38:00,41.0,20.2,30.06,SW,227,5.8,6.3,43,-99.99,,---,-99.99,VWS V14.01,2013-04-12 03:38:00,
2013-04-11 20:43:00,40.8,19.5,30.06,SW,227,5.8,5.8,42,-99.99,,---,-99.99,VWS V14.01,2013-04-12 03:43:00,
2013-04-11 20:48:00,39.4,9.8,30.06,SW,227,5.8,5.8,29,-99.99,,---,-99.99,VWS V14.01,2013-04-12 03:48:00,
2013-04-11 20:53:00,39.4,9.0,30.06,SW,227,5.8,5.8,28,-99.99,,---,-99.99,VWS V14.01,2013-04-12 03:53:00,
2013-04-11 20:58:00,39.4,2.7,30.06,SW,234,7.6,7.6,21,-99.99,,---,-99.99,VWS V14.01,2013-04-12 03:58:00,
2013-04-11 21:00:00,39.4,2.7,30.06,SW,234,7.6,7.6,21,-99.99,,---,-99.99,VWS V14.01,2013-04-12 04:00:00,
2013-04-11 21:05:00,39.4,2.7,30.09,SW,223,5.8,5.8,21,-99.99,,---,-99.99,VWS V14.01,2013-04-12 04:05:00,
2013-04-11 21:10:00,40.3,3.5,30.09,SW,223,5.8,5.8,21,-99.99,,---,-99.99,VWS V14.01,2013-04-12 04:10:00,
2013-04-11 21:15:00,39.7,3.0,30.09,WSW,240,6.3,6.3,21,-99.99,,---,-99.99,VWS V14.01,2013-04-12 04:15:00,
2013-04-11 21:20:00,39.4,4.7,30.09,WSW,241,9.2,9.2,23,-99.99,,---,-99.99,VWS V14.01,2013-04-12 04:20:00,
2013-04-11 21:25:00,39.0,9.5,30.09,WSW,247,10.1,10.1,29,-99.99,,---,-99.99,VWS V14.01,2013-04-12 04:25:00,
2013-04-11 21:30:00,39.0,9.5,30.09,WSW,247,10.1,10.1,29,-99.99,,---,-99.99,VWS V14.01,2013-04-12 04:30:00,
2013-04-11 21:35:00,39.4,12.7,30.09,WSW,247,10.1,10.1,33,-99.99,,---,-99.99,VWS V14.01,2013-04-12 04:35:00,
2013-04-11 21:40:00,39.6,13.5,30.09,WSW,247,10.1,10.1,34,-99.99,,---,-99.99,VWS V14.01,2013-04-12 04:40:00,
2013-04-11 21:45:00,39.7,15.0,30.09,WSW,247,10.1,10.1,36,-99.99,,---,-99.99,VWS V14.01,2013-04-12 04:45:00,
2013-04-11 21:50:00,39.7,15.0,30.09,WSW,247,10.1,10.1,36,-99.99,,---,-99.99,VWS V14.01,2013-04-12 04:50:00,
2013-04-11 21:55:00,40.5,18.1,30.09,SW,233,8.7,8.7,40,-99.99,,---,-99.99,VWS V14.01,2013-04-12 04:55:00,
2013-04-11 22:00:00,40.6,18.2,30.09,WSW,244,10.1,10.1,40,-99.99,,---,-99.99,VWS V14.01,2013-04-12 05:00:00,
2013-04-11 22:05:00,40.3,14.8,30.09,WSW,244,10.1,10.1,35,-99.99,,---,-99.99,VWS V14.01,2013-04-12 05:05:00,
2013-04-11 22:10:00,39.7,10.1,30.09,WSW,244,10.1,10.1,29,-99.99,,---,-99.99,VWS V14.01,2013-04-12 05:10:00,
2013-04-11 22:15:00,39.0,7.1,30.09,WSW,244,10.1,10.1,26,-99.99,,---,-99.99,VWS V14.01,2013-04-12 05:15:00,
2013-04-11 22:20:00,39.0,7.1,30.09,WSW,244,10.1,10.1,26,-99.99,,---,-99.99,VWS V14.01,2013-04-12 05:20:00,
2013-04-11 22:25:00,39.4,2.7,30.09,WSW,244,10.1,10.1,21,-99.99,,---,-99.99,VWS V14.01,2013-04-12 05:25:00,
2013-04-11 22:30:00,39.7,3.0,30.09,WSW,244,10.1,10.1,21,-99.99,,---,-99.99,VWS V14.01,2013-04-12 05:30:00,
2013-04-11 22:35:00,39.4,2.7,30.09,WSW,244,10.1,10.1,21,-99.99,,---,-99.99,VWS V14.01,2013-04-12 05:35:00,
2013-04-11 22:40:00,39.4,2.7,30.09,WSW,244,10.1,10.1,21,-99.99,,---,-99.99,VWS V14.01,2013-04-12 05:40:00,
2013-04-11 22:45:00,38.8,6.9,30.09,WSW,244,10.1,10.1,26,-99.99,,---,-99.99,VWS V14.01,2013-04-12 05:45:00,
2013-04-11 22:50:00,38.8,6.9,30.09,WSW,244,10.1,10.1,26,-99.99,,---,-99.99,VWS V14.01,2013-04-12 05:50:00,
2013-04-11 22:55:00,38.8,5.2,30.09,WSW,244,10.1,10.1,24,-99.99,,---,-99.99,VWS V14.01,2013-04-12 05:55:00,
2013-04-11 23:00:00,38.8,2.3,30.09,WSW,244,10.1,10.1,21,-99.99,,---,-99.99,VWS V14.01,2013-04-12 06:00:00,
2013-04-11 23:05:00,38.8,2.3,30.09,WSW,244,10.1,10.1,21,-99.99,,---,-99.99,VWS V14.01,2013-04-12 06:05:00,
2013-04-11 23:10:00,38.7,2.1,30.09,WSW,244,10.1,10.1,21,-99.99,,---,-99.99,VWS V14.01,2013-04-12 06:10:00,
2013-04-11 23:15:00,38.7,5.0,30.09,WSW,244,10.1,10.1,24,-99.99,,---,-99.99,VWS V14.01,2013-04-12 06:15:00,
2013-04-11 23:20:00,38.7,5.0,30.09,WSW,244,10.1,10.1,24,-99.99,,---,-99.99,VWS V14.01,2013-04-12 06:20:00,
2013-04-11 23:25:00,38.5,2.0,30.09,WSW,244,10.1,10.1,21,-99.99,,---,-99.99,VWS V14.01,2013-04-12 06:25:00,
2013-04-11 23:30:00,38.7,2.1,30.09,WSW,244,10.1,10.1,21,-99.99,,---,-99.99,VWS V14.01,2013-04-12 06:30:00,
2013-04-11 23:35:00,39.2,2.6,30.09,WSW,244,10.1,10.1,21,-99.99,,---,-99.99,VWS V14.01,2013-04-12 06:35:00,
2013-04-11 23:40:00,39.2,2.6,30.09,WSW,244,10.1,10.1,21,-99.99,,---,-99.99,VWS V14.01,2013-04-12 06:40:00,
2013-04-11 23:45:00,39.6,2.9,30.09,WSW,244,10.1,10.1,21,-99.99,,---,-99.99,VWS V14.01,2013-04-12 06:45:00,
2013-04-11 23:50:00,39.2,2.6,30.09,WSW,244,10.1,10.1,21,-99.99,,---,-99.99,VWS V14.01,2013-04-12 06:50:00,
2013-04-11 23:55:00,39.0,2.4,30.09,WSW,244,10.1,10.1,21,-99.99,,---,-99.99,VWS V14.01,2013-04-12 06:55:00,